TimeCST,TemperatureF,Dew PointF,Humidity,Sea Level PressureIn,VisibilityMPH,Wind Direction,Wind SpeedMPH,Gust SpeedMPH,PrecipitationIn,Events,Conditions,WindDirDegrees,DateUTC
12:15 AM,2.7,-0.4,87,30.44,10.0,NNW,5.8,-,N/A,,Overcast,330,2011-12-06 06:15:00
12:35 AM,2.5,-0.6,87,30.44,10.0,NW,5.8,-,N/A,,Overcast,320,2011-12-06 06:35:00
12:55 AM,2.8,-0.6,86,30.43,10.0,NNW,6.9,-,N/A,,Overcast,330,2011-12-06 06:55:00
1:15 AM,2.8,-0.6,86,30.43,10.0,NW,6.9,-,N/A,,Overcast,320,2011-12-06 07:15:00
1:35 AM,1.2,-2.0,86,30.43,10.0,NNW,8.1,-,N/A,,Scattered Clouds,330,2011-12-06 07:35:00
1:55 AM,-0.0,-3.5,85,30.43,10.0,NNW,8.1,-,N/A,,Clear,330,2011-12-06 07:55:00
2:15 AM,-1.5,-4.7,86,30.43,10.0,North,4.6,-,N/A,,Clear,350,2011-12-06 08:15:00
2:35 AM,-2.4,-5.3,88,30.42,10.0,NNW,6.9,-,N/A,,Scattered Clouds,330,2011-12-06 08:35:00
2:55 AM,-2.4,-4.9,89,30.42,10.0,NNW,6.9,-,N/A,,Mostly Cloudy,330,2011-12-06 08:55:00
3:15 AM,-1.7,-4.4,88,30.42,10.0,NNW,8.1,-,N/A,,Overcast,340,2011-12-06 09:15:00
3:35 AM,-2.6,-5.6,87,30.41,10.0,NNW,6.9,-,N/A,,Mostly Cloudy,340,2011-12-06 09:35:00
3:55 AM,-3.8,-7.1,86,30.41,10.0,NNW,6.9,-,N/A,,Overcast,340,2011-12-06 09:55:00
4:15 AM,-3.6,-6.9,86,30.40,10.0,NNW,5.8,-,N/A,,Overcast,340,2011-12-06 10:15:00
4:35 AM,-3.3,-6.5,86,30.39,10.0,NNW,5.8,-,N/A,,Overcast,330,2011-12-06 10:35:00
4:55 AM,-3.5,-6.7,86,30.39,10.0,NNW,4.6,-,N/A,,Overcast,340,2011-12-06 10:55:00
5:15 AM,-3.1,-6.2,87,30.38,10.0,NNW,4.6,-,N/A,,Overcast,340,2011-12-06 11:15:00
5:35 AM,-3.3,-6.5,86,30.37,10.0,NNW,4.6,-,N/A,,Scattered Clouds,330,2011-12-06 11:35:00
5:55 AM,-3.6,-6.9,86,30.36,10.0,NNW,5.8,-,N/A,,Clear,330,2011-12-06 11:55:00
6:15 AM,-3.5,-6.3,87,30.36,10.0,NNW,5.8,-,N/A,,Clear,330,2011-12-06 12:15:00
6:35 AM,-3.5,-6.3,87,30.35,10.0,NW,5.8,-,N/A,,Clear,320,2011-12-06 12:35:00
6:55 AM,-4.9,-8.0,87,30.35,10.0,NNW,5.8,-,N/A,,Clear,330,2011-12-06 12:55:00
7:15 AM,-8.1,-11.4,86,30.35,10.0,NNW,5.8,-,N/A,,Clear,330,2011-12-06 13:15:00
7:35 AM,-8.0,-10.8,87,30.35,10.0,NW,4.6,-,N/A,,Clear,320,2011-12-06 13:35:00
7:55 AM,-9.0,-12.3,86,30.35,10.0,NNW,5.8,-,N/A,,Clear,330,2011-12-06 13:55:00
8:15 AM,-8.0,-11.0,86,30.35,10.0,NW,3.5,-,N/A,,Clear,320,2011-12-06 14:15:00
8:35 AM,-6.0,-8.9,87,30.34,10.0,NNW,3.5,-,N/A,,Clear,330,2011-12-06 14:35:00
9:15 AM,-1.1,-4.0,88,30.34,10.0,NW,3.5,-,N/A,,Clear,320,2011-12-06 15:15:00
9:35 AM,0.1,-3.5,85,30.33,10.0,WNW,3.5,-,N/A,,Clear,300,2011-12-06 15:35:00
9:55 AM,0.1,-3.8,83,30.34,10.0,West,3.5,-,N/A,,Clear,270,2011-12-06 15:55:00
10:15 AM,1.0,-3.1,83,30.35,10.0,WNW,3.5,-,N/A,,Clear,290,2011-12-06 16:15:00
10:35 AM,1.4,-3.1,81,30.35,10.0,Calm,Calm,-,N/A,,Clear,0,2011-12-06 16:35:00
10:55 AM,1.0,-3.6,81,30.33,10.0,Calm,Calm,-,N/A,,Clear,0,2011-12-06 16:55:00
11:15 AM,1.0,-3.5,81,30.32,10.0,Calm,Calm,-,N/A,,Clear,0,2011-12-06 17:15:00
11:55 AM,1.9,-2.2,83,30.30,10.0,SSW,4.6,-,N/A,,Clear,200,2011-12-06 17:55:00
12:15 PM,2.8,-1.3,83,30.30,10.0,WSW,6.9,-,N/A,,Clear,250,2011-12-06 18:15:00
12:35 PM,5.0,-0.2,79,30.29,10.0,West,8.1,-,N/A,,Clear,260,2011-12-06 18:35:00
12:55 PM,5.0,-0.6,78,30.27,10.0,West,5.8,-,N/A,,Clear,260,2011-12-06 18:55:00
1:15 PM,5.2,-0.4,78,30.26,10.0,WSW,5.8,-,N/A,,Clear,250,2011-12-06 19:15:00
1:35 PM,5.4,-0.6,76,30.24,10.0,WSW,3.5,-,N/A,,Clear,240,2011-12-06 19:35:00
1:55 PM,6.1,0.1,77,30.22,10.0,WSW,4.6,-,N/A,,Clear,240,2011-12-06 19:55:00
2:15 PM,6.6,0.5,76,30.22,10.0,WSW,3.5,-,N/A,,Clear,240,2011-12-06 20:15:00
2:35 PM,7.3,0.7,74,30.21,10.0,WSW,4.6,-,N/A,,Clear,240,2011-12-06 20:35:00
2:55 PM,7.2,0.5,74,30.20,10.0,SW,5.8,-,N/A,,Clear,230,2011-12-06 20:55:00
3:15 PM,6.4,0.7,77,30.20,10.0,SW,4.6,-,N/A,,Clear,220,2011-12-06 21:15:00
3:35 PM,5.7,0.3,78,30.19,10.0,SSW,3.5,-,N/A,,Clear,200,2011-12-06 21:35:00
3:55 PM,4.5,-0.4,80,30.19,10.0,SW,4.6,-,N/A,,Clear,220,2011-12-06 21:55:00
4:15 PM,3.7,-1.1,80,30.19,10.0,SSW,8.1,-,N/A,,Clear,200,2011-12-06 22:15:00
4:35 PM,2.5,-2.0,81,30.19,10.0,SSW,6.9,-,N/A,,Clear,200,2011-12-06 22:35:00
4:55 PM,0.3,-3.5,84,30.18,10.0,South,8.1,-,N/A,,Clear,180,2011-12-06 22:55:00
5:15 PM,-1.1,-4.2,87,30.18,10.0,South,9.2,-,N/A,,Clear,190,2011-12-06 23:15:00
5:35 PM,-1.7,-4.7,87,30.18,10.0,SSW,8.1,-,N/A,,Clear,200,2011-12-06 23:35:00
5:55 PM,-2.7,-5.4,88,30.18,10.0,SSW,10.4,-,N/A,,Clear,200,2011-12-06 23:55:00
6:15 PM,-2.7,-5.6,87,30.16,10.0,South,10.4,-,N/A,,Clear,190,2011-12-07 00:15:00
6:35 PM,-2.2,-5.4,86,30.16,10.0,SSW,10.4,-,N/A,,Clear,200,2011-12-07 00:35:00
6:55 PM,-3.8,-6.7,87,30.15,10.0,South,11.5,-,N/A,,Clear,190,2011-12-07 00:55:00
7:15 PM,-1.8,-4.7,88,30.14,10.0,South,11.5,-,N/A,,Clear,190,2011-12-07 01:15:00
7:55 PM,-2.7,-6.0,86,30.12,10.0,South,9.2,-,N/A,,Clear,190,2011-12-07 01:55:00
8:35 PM,0.3,-2.9,86,30.11,10.0,SSW,8.1,-,N/A,,Clear,200,2011-12-07 02:35:00
8:55 PM,0.5,-3.3,84,30.10,10.0,SSW,8.1,-,N/A,,Clear,210,2011-12-07 02:55:00
9:35 PM,2.7,-1.1,84,30.10,10.0,SW,10.4,-,N/A,,Clear,220,2011-12-07 03:35:00
9:55 PM,3.9,0.1,84,30.10,10.0,SW,13.8,-,N/A,,Clear,220,2011-12-07 03:55:00
10:15 PM,4.3,0.5,84,30.09,10.0,SSW,12.7,-,N/A,,Clear,210,2011-12-07 04:15:00
10:35 PM,4.6,0.9,84,30.09,10.0,SSW,15.0,-,N/A,,Clear,210,2011-12-07 04:35:00
10:55 PM,5.0,1.2,84,30.08,10.0,SW,12.7,-,N/A,,Clear,220,2011-12-07 04:55:00
11:15 PM,5.0,1.2,84,30.07,10.0,SSW,13.8,-,N/A,,Clear,210,2011-12-07 05:15:00
11:35 PM,5.0,1.4,85,30.06,10.0,SSW,16.1,-,N/A,,Clear,200,2011-12-07 05:35:00
11:55 PM,5.2,1.4,84,30.06,10.0,SSW,16.1,-,N/A,,Clear,210,2011-12-07 05:55:00